| time (UTC) | temp F | wind direction | speed MPH | gust MPH | rain 1hr in | rain 24hr in | rain mn in | humidity % | barometer mb |
| 20260507014504 | 60 | 186 | 0.0 | 0.0 | 0.00 | 0.13 | 0.13 | 93 | 1008.1 |
| 20260507013005 | 60 | 191 | 0.0 | 6.0 | 0.00 | 0.13 | 0.13 | 93 | 1008.1 |
| 20260507011509 | 60 | 220 | 0.0 | 4.0 | 0.00 | 0.13 | 0.13 | 93 | 1007.9 |
| 20260507010014 | 60 | 226 | 0.0 | 8.0 | 0.01 | 0.13 | 0.13 | 93 | 1008.0 |
| 20260507004521 | 59 | 247 | 0.0 | 7.0 | 0.01 | 0.13 | 0.13 | 93 | 1007.7 |
| 20260507003006 | 59 | 205 | 0.0 | 0.0 | 0.01 | 0.13 | 0.13 | 93 | 1007.8 |
| 20260507001508 | 59 | 214 | 0.0 | 0.0 | 0.01 | 0.13 | 0.13 | 93 | 1007.9 |
| 20260507000010 | 59 | 221 | 0.0 | 0.0 | 0.00 | 0.12 | 0.12 | 93 | 1007.7 |
| 20260506234519 | 59 | 169 | 0.0 | 0.0 | 0.00 | 0.12 | 0.12 | 93 | 1007.8 |
| 20260506233017 | 59 | 198 | 0.0 | 2.0 | 0.00 | 0.12 | 0.12 | 93 | 1007.7 |
| 20260506231503 | 59 | 282 | 0.0 | 10.0 | 0.00 | 0.12 | 0.12 | 93 | 1007.6 |
| 20260506230005 | 59 | 198 | 0.0 | 0.0 | 0.00 | 0.12 | 0.12 | 93 | 1007.4 |
| 20260506224511 | 59 | 166 | 0.0 | 5.0 | 0.00 | 0.12 | 0.12 | 93 | 1007.3 |
| 20260506223016 | 59 | 180 | 0.0 | 2.0 | 0.00 | 0.12 | 0.12 | 93 | 1007.2 |
| 20260506221522 | 59 | 222 | 1.0 | 13.0 | 0.00 | 0.12 | 0.12 | 93 | 1007.2 |
| 20260506220015 | 59 | 154 | 0.0 | 0.0 | 0.00 | 0.12 | 0.12 | 93 | 1007.1 |
| 20260506214508 | 59 | 228 | 0.0 | 6.0 | 0.00 | 0.12 | 0.12 | 92 | 1007.2 |
| 20260506213013 | 59 | 192 | 0.0 | 0.0 | 0.01 | 0.12 | 0.12 | 92 | 1007.1 |
| 20260506211524 | 59 | 211 | 0.0 | 0.0 | 0.01 | 0.12 | 0.12 | 92 | 1007.0 |
| 20260506210032 | 59 | 218 | 0.0 | 4.0 | 0.02 | 0.12 | 0.12 | 92 | 1007.1 |
| 20260506204506 | 59 | 169 | 0.0 | 0.0 | 0.04 | 0.12 | 0.12 | 92 | 1007.2 |
| 20260506203008 | 59 | 167 | 0.0 | 0.0 | 0.04 | 0.11 | 0.11 | 92 | 1007.4 |
| 20260506201516 | 59 | 164 | 0.0 | 0.0 | 0.05 | 0.11 | 0.11 | 92 | 1007.6 |
| 20260506200034 | 58 | 134 | 0.0 | 0.0 | 0.05 | 0.10 | 0.10 | 92 | 1007.7 |
| 20260506194525 | 58 | 174 | 0.0 | 0.0 | 0.03 | 0.08 | 0.08 | 92 | 1007.8 |
| 20260506193007 | 58 | 122 | 0.0 | 7.0 | 0.02 | 0.07 | 0.07 | 92 | 1007.9 |
| 20260506191510 | 58 | 180 | 0.0 | 4.0 | 0.01 | 0.06 | 0.06 | 91 | 1007.9 |
| 20260506190019 | 58 | 235 | 0.0 | 6.0 | 0.01 | 0.05 | 0.05 | 91 | 1008.1 |
| 20260506184521 | 58 | 186 | 0.0 | 6.0 | 0.02 | 0.05 | 0.05 | 91 | 1008.2 |
| 20260506183025 | 58 | 234 | 0.0 | 0.0 | 0.03 | 0.05 | 0.05 | 91 | 1008.3 |
| 20260506181526 | 58 | 217 | 0.0 | 0.0 | 0.04 | 0.05 | 0.05 | 90 | 1008.8 |
| 20260506180017 | 58 | 152 | 0.0 | 2.0 | 0.04 | 0.04 | 0.04 | 90 | 1008.6 |
| 20260506174517 | 59 | 172 | 0.0 | 5.0 | 0.03 | 0.03 | 0.03 | 89 | 1008.5 |
| 20260506173024 | 60 | 156 | 0.0 | 0.0 | 0.02 | 0.02 | 0.02 | 87 | 1008.6 |
| 20260506171525 | 61 | 137 | 0.0 | 0.0 | 0.01 | 0.01 | 0.01 | 84 | 1008.8 |
| 20260506170027 | 62 | 190 | 0.0 | 1.0 | 0.00 | 0.00 | 0.00 | 81 | 1009.6 |
| 20260506164515 | 63 | 163 | 0.0 | 0.0 | 0.00 | 0.00 | 0.00 | 79 | 1009.5 |
| 20260506163023 | 64 | 162 | 0.0 | 0.0 | 0.00 | 0.00 | 0.00 | 77 | 1009.7 |
| 20260506161524 | 64 | 118 | 0.0 | 7.0 | 0.00 | 0.00 | 0.00 | 77 | 1009.6 |
| 20260506160028 | 64 | 195 | 0.0 | 9.0 | 0.00 | 0.00 | 0.00 | 76 | 1009.7 |
| 20260506154529 | 65 | 213 | 0.0 | 7.0 | 0.00 | 0.00 | 0.00 | 74 | 1009.9 |
| 20260506153016 | 66 | 150 | 0.0 | 1.0 | 0.00 | 0.00 | 0.00 | 74 | 1010.1 |
| 20260506151522 | 65 | 227 | 0.0 | 7.0 | 0.00 | 0.00 | 0.00 | 74 | 1010.0 |
| 20260506150024 | 65 | 203 | 0.0 | 9.0 | 0.00 | 0.00 | 0.00 | 74 | 1010.0 |
| 20260506144531 | 66 | 185 | 0.0 | 10.0 | 0.00 | 0.00 | 0.00 | 73 | 1010.0 |
| 20260506143033 | 65 | 154 | 0.0 | 9.0 | 0.00 | 0.00 | 0.00 | 75 | 1010.1 |
| 20260506141517 | 65 | 223 | 0.0 | 7.0 | 0.00 | 0.00 | 0.00 | 76 | 1010.4 |
| 20260506140021 | 64 | 68 | 0.0 | 0.0 | 0.00 | 0.00 | 0.00 | 76 | 1010.0 |
| 20260506134526 | 64 | 209 | 0.0 | 1.0 | 0.00 | 0.00 | 0.00 | 77 | 1010.3 |
| 20260506133028 | 63 | 224 | 0.0 | 5.0 | 0.00 | 0.00 | 0.00 | 79 | 1010.2 |
| 20260506131535 | 63 | 211 | 0.0 | 10.0 | 0.00 | 0.00 | 0.00 | 79 | 1010.2 |
| 20260506130021 | 62 | 161 | 0.0 | 9.0 | 0.00 | 0.00 | 0.00 | 80 | 1010.2 |
| 20260506124527 | 62 | 227 | 0.0 | 7.0 | 0.00 | 0.00 | 0.00 | 81 | 1010.2 |
| 20260506123037 | 62 | 128 | 0.0 | 6.0 | 0.00 | 0.00 | 0.00 | 82 | 1010.5 |
| 20260506121527 | 61 | 144 | 0.0 | 0.0 | 0.00 | 0.00 | 0.00 | 83 | 1010.9 |
| 20260506120037 | 60 | 104 | 0.0 | 3.0 | 0.00 | 0.00 | 0.00 | 84 | 1010.7 |
| 20260506114524 | 59 | 188 | 0.0 | 0.0 | 0.00 | 0.00 | 0.00 | 86 | 1010.6 |
| 20260506113025 | 58 | 149 | 0.0 | 4.0 | 0.00 | 0.00 | 0.00 | 86 | 1010.6 |
| 20260506111528 | 58 | 207 | 0.0 | 0.0 | 0.00 | 0.00 | 0.00 | 87 | 1010.6 |
| 20260506110027 | 57 | 225 | 0.0 | 0.0 | 0.00 | 0.00 | 0.00 | 88 | 1011.0 |
| 20260506104531 | 57 | 185 | 0.0 | 0.0 | 0.00 | 0.00 | 0.00 | 88 | 1010.8 |
| 20260506103028 | 57 | 155 | 0.0 | 2.0 | 0.00 | 0.00 | 0.00 | 88 | 1010.5 |
| 20260506101526 | 56 | 71 | 0.0 | 0.0 | 0.00 | 0.00 | 0.00 | 88 | 1010.8 |
| 20260506100012 | 57 | 71 | 0.0 | 0.0 | 0.00 | 0.00 | 0.00 | 87 | 1010.6 |
| 20260506094527 | 57 | 205 | 0.0 | 0.0 | 0.00 | 0.00 | 0.00 | 87 | 1010.6 |
| 20260506093034 | 57 | 64 | 0.0 | 0.0 | 0.00 | 0.00 | 0.00 | 87 | 1010.4 |
| 20260506091525 | 57 | 215 | 0.0 | 0.0 | 0.00 | 0.00 | 0.00 | 88 | 1010.6 |
| 20260506090028 | 56 | 237 | 0.0 | 0.0 | 0.00 | 0.00 | 0.00 | 87 | 1010.6 |
| 20260506084512 | 56 | 246 | 0.0 | 0.0 | 0.00 | 0.00 | 0.00 | 87 | 1010.9 |
| 20260506083018 | 56 | 225 | 0.0 | 0.0 | 0.00 | 0.00 | 0.00 | 87 | 1011.0 |
| 20260506081521 | 56 | 173 | 0.0 | 0.0 | 0.00 | 0.00 | 0.00 | 86 | 1010.9 |
| 20260506073014 | 57 | 173 | 0.0 | 0.0 | 0.00 | 0.00 | 0.00 | 84 | 1010.9 |
| 20260506071520 | 58 | 168 | 0.0 | 0.0 | 0.00 | 0.00 | 0.00 | 82 | 1011.0 |
| 20260506061516 | 60 | 169 | 0.0 | 0.0 | 0.00 | 0.00 | 0.00 | 79 | 1010.9 |
| 20260506044524 | 61 | 179 | 0.0 | 8.0 | 0.00 | 0.00 | 0.00 | 74 | 1011.3 |
| 20260506043024 | 61 | 161 | 0.0 | 0.0 | 0.00 | 0.00 | 0.00 | 73 | 1011.4 |
| 20260506041510 | 62 | 225 | 0.0 | 7.0 | 0.00 | 0.00 | 0.00 | 72 | 1011.3 |
| 20260506040016 | 62 | 236 | 0.0 | 1.0 | 0.00 | 0.00 | 0.00 | 71 | 1011.3 |
| 20260506034519 | 63 | 233 | 0.0 | 0.0 | 0.00 | 0.00 | 0.00 | 70 | 1011.3 |
| 20260506033024 | 64 | 219 | 0.0 | 8.0 | 0.00 | 0.00 | 0.00 | 68 | 1011.2 |
| 20260506031525 | 64 | 213 | 0.0 | 7.0 | 0.00 | 0.00 | 0.00 | 68 | 1011.2 |
| 20260506030029 | 63 | 192 | 0.0 | 0.0 | 0.00 | 0.00 | 0.00 | 70 | 1011.3 |
| 20260506024518 | 63 | 163 | 0.0 | 0.0 | 0.00 | 0.00 | 0.00 | 69 | 1011.3 |
| 20260506023022 | 63 | 173 | 0.0 | 6.0 | 0.00 | 0.00 | 0.00 | 69 | 1011.2 |
| 20260506021525 | 63 | 254 | 0.0 | 7.0 | 0.00 | 0.00 | 0.00 | 68 | 1011.1 |
| 20260506020026 | 63 | 142 | 0.0 | 0.0 | 0.00 | 0.00 | 0.00 | 68 | 1011.1 |